• In Kazakhstan
  • List of Countries
  • For 7 days
  • Water Temperature
  • Weather Map
  • News
  • Weather Widgets
  • user-avatar
    Login

    Hourly Weather Lankaran

    Today, 6 June, Saturday

    Time Temperature Precipitation Wind Pressure Humidity
    00:00 +9°C° 0 mm 2 mps 635 mmHg 85%
    01:00 +9°C° 0 mm 2 mps 635 mmHg 84%
    02:00 +9°C° 0 mm 2 mps 635 mmHg 82%
    03:00 +9°C° 0 mm 2 mps 635 mmHg 81%
    04:00 +10°C° 0 mm 2 mps 635 mmHg 78%
    05:00 +10°C° 0 mm 2 mps 636 mmHg 75%
    06:00 +12°C° 0 mm 1 mps 636 mmHg 73%
    07:00 +14°C° 0 mm 2 mps 637 mmHg 69%
    08:00 +14°C° 0 mm 3 mps 637 mmHg 65%
    09:00 +16°C° 0 mm 3 mps 638 mmHg 61%
    10:00 +17°C° 0 mm 4 mps 638 mmHg 61%
    11:00 +17°C° 0 mm 4 mps 638 mmHg 60%
    12:00 +17°C° 0 mm 4 mps 638 mmHg 59%
    13:00 +17°C° 0 mm 4 mps 638 mmHg 59%
    14:00 +17°C° 0 mm 4 mps 637 mmHg 59%
    15:00 +17°C° 0 mm 4 mps 637 mmHg 58%
    16:00 +16°C° 0.1 mm 3 mps 637 mmHg 62%
    17:00 +14°C° 0.1 mm 3 mps 637 mmHg 65%
    18:00 +15°C° 0.1 mm 2 mps 636 mmHg 68%
    19:00 +13°C° 0 mm 2 mps 636 mmHg 71%
    20:00 +12°C° 0 mm 2 mps 636 mmHg 74%
    21:00 +11°C° 0 mm 1 mps 635 mmHg 78%
    22:00 +11°C° 0 mm 1 mps 635 mmHg 78%
    23:00 +11°C° 0 mm 1 mps 635 mmHg 78%

    Tomorrow, 7 June, Sunday

    Time Temperature Precipitation Wind Pressure Humidity
    00:00 +10°C° 0 mm 1 mps 635 mmHg 78%
    01:00 +10°C° 0 mm 1 mps 635 mmHg 78%
    02:00 +10°C° 0 mm 1 mps 635 mmHg 78%
    03:00 +10°C° 0 mm 1 mps 635 mmHg 78%
    04:00 +11°C° 0 mm 1 mps 635 mmHg 74%
    05:00 +12°C° 0 mm 1 mps 636 mmHg 71%
    06:00 +13°C° 0 mm 1 mps 636 mmHg 67%
    07:00 +15°C° 0 mm 1 mps 637 mmHg 61%
    08:00 +16°C° 0 mm 2 mps 637 mmHg 56%
    09:00 +18°C° 0 mm 2 mps 638 mmHg 51%
    10:00 +19°C° 0 mm 2 mps 638 mmHg 49%
    11:00 +19°C° 0 mm 3 mps 638 mmHg 47%
    12:00 +20°C° 0 mm 3 mps 638 mmHg 45%
    13:00 +20°C° 0 mm 4 mps 637 mmHg 46%
    14:00 +20°C° 0 mm 4 mps 637 mmHg 46%
    15:00 +20°C° 0 mm 4 mps 637 mmHg 47%
    16:00 +19°C° 0 mm 4 mps 636 mmHg 51%
    17:00 +18°C° 0 mm 3 mps 636 mmHg 56%
    18:00 +17°C° 0 mm 2 mps 635 mmHg 60%
    19:00 +15°C° 0 mm 2 mps 635 mmHg 60%
    20:00 +13°C° 0 mm 2 mps 634 mmHg 59%
    21:00 +12°C° 0 mm 1 mps 634 mmHg 58%
    22:00 +12°C° 0 mm 1 mps 634 mmHg 53%
    23:00 +11°C° 0 mm 1 mps 634 mmHg 48%

    Day after tomorrow, 8 June, Monday

    Time Temperature Precipitation Wind Pressure Humidity
    00:00 +11°C° 0 mm 1 mps 633 mmHg 44%
    01:00 +11°C° 0 mm 1 mps 633 mmHg 43%
    02:00 +11°C° 0 mm 1 mps 633 mmHg 42%
    03:00 +11°C° 0 mm 1 mps 633 mmHg 42%
    04:00 +12°C° 0 mm 1 mps 633 mmHg 41%
    05:00 +14°C° 0 mm 1 mps 634 mmHg 41%
    06:00 +15°C° 0 mm 1 mps 634 mmHg 41%
    07:00 +18°C° 0 mm 1 mps 635 mmHg 38%
    08:00 +18°C° 0 mm 2 mps 635 mmHg 35%
    09:00 +20°C° 0 mm 2 mps 636 mmHg 32%
    10:00 +20°C° 0 mm 3 mps 636 mmHg 34%
    11:00 +21°C° 0 mm 3 mps 636 mmHg 36%
    12:00 +21°C° 0 mm 4 mps 636 mmHg 38%
    13:00 +21°C° 0 mm 4 mps 635 mmHg 39%
    14:00 +21°C° 0 mm 4 mps 635 mmHg 41%
    15:00 +21°C° 0 mm 4 mps 635 mmHg 42%
    16:00 +20°C° 0 mm 3 mps 634 mmHg 48%
    17:00 +18°C° 0 mm 3 mps 634 mmHg 54%
    18:00 +17°C° 0 mm 2 mps 633 mmHg 60%
    19:00 +16°C° 0 mm 2 mps 633 mmHg 60%
    20:00 +14°C° 0 mm 1 mps 633 mmHg 60%
    21:00 +12°C° 0 mm 1 mps 632 mmHg 60%
    22:00 +12°C° 0 mm 1 mps 632 mmHg 60%
    23:00 +12°C° 0 mm 1 mps 632 mmHg 60%

    9 June, Tuesday

    Time Temperature Precipitation Wind Pressure Humidity
    00:00 +12°C° 0 mm 1 mps 632 mmHg 60%
    01:00 +12°C° 0 mm 1 mps 632 mmHg 59%
    02:00 +12°C° 0 mm 1 mps 632 mmHg 59%
    03:00 +12°C° 0 mm 1 mps 631 mmHg 58%
    04:00 +13°C° 0 mm 1 mps 632 mmHg 57%
    05:00 +15°C° 0 mm 1 mps 633 mmHg 55%
    06:00 +15°C° 0 mm 0 mps 634 mmHg 54%
    07:00 +18°C° 0 mm 1 mps 634 mmHg 53%
    08:00 +18°C° 0 mm 2 mps 635 mmHg 52%
    09:00 +20°C° 0 mm 2 mps 635 mmHg 52%
    10:00 +20°C° 0.1 mm 3 mps 635 mmHg 50%
    11:00 +21°C° 0.1 mm 3 mps 636 mmHg 48%
    12:00 +22°C° 0.1 mm 4 mps 636 mmHg 46%
    13:00 +22°C° 0.1 mm 4 mps 635 mmHg 46%
    14:00 +22°C° 0.1 mm 4 mps 635 mmHg 47%
    15:00 +22°C° 0.1 mm 4 mps 635 mmHg 48%
    16:00 +20°C° 0.7 mm 3 mps 634 mmHg 55%
    17:00 +19°C° 0.7 mm 2 mps 634 mmHg 62%
    18:00 +17°C° 0.7 mm 2 mps 634 mmHg 69%
    19:00 +17°C° 0.2 mm 2 mps 634 mmHg 71%
    20:00 +16°C° 0.2 mm 2 mps 634 mmHg 72%
    21:00 +16°C° 0.2 mm 2 mps 634 mmHg 74%
    22:00 +16°C° 0 mm 2 mps 634 mmHg 73%
    23:00 +15°C° 0 mm 1 mps 633 mmHg 71%

    10 June, Wednesday

    Time Temperature Precipitation Wind Pressure Humidity
    00:00 +15°C° 0 mm 1 mps 633 mmHg 69%
    01:00 +15°C° 0 mm 1 mps 633 mmHg 70%
    02:00 +14°C° 0 mm 1 mps 633 mmHg 70%
    03:00 +14°C° 0 mm 1 mps 632 mmHg 70%
    04:00 +15°C° 0 mm 1 mps 633 mmHg 67%
    05:00 +18°C° 0 mm 1 mps 634 mmHg 64%
    06:00 +17°C° 0 mm 0 mps 634 mmHg 61%
    07:00 +20°C° 0 mm 1 mps 635 mmHg 57%
    08:00 +20°C° 0 mm 2 mps 635 mmHg 54%
    09:00 +23°C° 0 mm 2 mps 636 mmHg 50%
    10:00 +24°C° 0 mm 3 mps 636 mmHg 48%
    11:00 +24°C° 0 mm 3 mps 636 mmHg 46%
    12:00 +25°C° 0 mm 3 mps 636 mmHg 44%
    13:00 +25°C° 0.1 mm 3 mps 636 mmHg 45%
    14:00 +25°C° 0.1 mm 3 mps 636 mmHg 46%
    15:00 +25°C° 0.1 mm 3 mps 635 mmHg 46%
    16:00 +24°C° 0.2 mm 3 mps 635 mmHg 52%
    17:00 +21°C° 0.2 mm 2 mps 634 mmHg 57%
    18:00 +20°C° 0.2 mm 2 mps 634 mmHg 62%
    19:00 +20°C° 0 mm 1 mps 634 mmHg 62%
    20:00 +18°C° 0 mm 1 mps 634 mmHg 61%
    21:00 +16°C° 0 mm 1 mps 633 mmHg 60%
    22:00 +16°C° 0 mm 1 mps 633 mmHg 59%
    23:00 +16°C° 0 mm 1 mps 633 mmHg 59%

    11 June, Thursday

    Time Temperature Precipitation Wind Pressure Humidity
    00:00 +16°C° 0 mm 1 mps 633 mmHg 58%
    01:00 +16°C° 0 mm 1 mps 633 mmHg 59%
    02:00 +15°C° 0 mm 1 mps 632 mmHg 59%
    03:00 +15°C° 0 mm 1 mps 632 mmHg 60%
    04:00 +16°C° 0 mm 1 mps 633 mmHg 58%
    05:00 +18°C° 0 mm 1 mps 633 mmHg 57%
    06:00 +20°C° 0 mm 1 mps 634 mmHg 55%
    07:00 +21°C° 0 mm 1 mps 634 mmHg 49%
    08:00 +22°C° 0 mm 1 mps 635 mmHg 42%
    09:00 +24°C° 0 mm 2 mps 635 mmHg 36%
    10:00 +25°C° 0 mm 2 mps 635 mmHg 35%
    11:00 +25°C° 0 mm 3 mps 635 mmHg 34%
    12:00 +26°C° 0 mm 3 mps 635 mmHg 34%
    13:00 +26°C° 0 mm 4 mps 635 mmHg 33%
    14:00 +26°C° 0 mm 4 mps 634 mmHg 32%
    15:00 +26°C° 0 mm 4 mps 634 mmHg 31%
    16:00 +23°C° 0 mm 5 mps 634 mmHg 37%
    17:00 +21°C° 0 mm 5 mps 633 mmHg 44%
    18:00 +19°C° 0 mm 5 mps 633 mmHg 51%
    19:00 +18°C° 0 mm 4 mps 633 mmHg 50%
    20:00 +18°C° 0 mm 3 mps 633 mmHg 50%
    21:00 +17°C° 0 mm 2 mps 632 mmHg 49%
    22:00 +17°C° 0 mm 2 mps 632 mmHg 50%
    23:00 +17°C° 0 mm 2 mps 632 mmHg 50%
    Show more